Regional Weather Roundup
Issued by NWS Charleston, SC

Current Version | Previous Version | Graphics & Text | Print | Product List | Glossary On
Versions: 1 2 3 4 5 6 7 8 9 10 11 12 13 14 15 16 17 18 19 20 21 22 23 24 25 26 27 28 29 30 31 32 33 34 35 36 37 38 39 40 41 42 43 44 45 46 47 48 49 50
000 ASUS42 KCHS 252212 RWRCHS Regional Weather Roundup National Weather Service Charleston SC 600 PM EDT WED APR 25 2018 NOTE: "fair" indicates few or no clouds below 12,000 feet with no significant weather and/or obstructions to visibility. Not all stations are quality controlled. Use data with caution, especially dewpoint observations. SCZ027-030-031-034>040-042>050-252300- ...Southeast South Carolina... CITY SKY/WX TMP DP RH WIND PRES REMARKS N Charleston FAIR 79 54 41 W10 29.76S Waterfront Prk N/A 76 58 53 SW5 29.60F Mount Pleasant FAIR 77 55 47 W9 29.76S Johns Island FAIR 77 54 44 W9 29.76F Pinopolis N/A N/A N/A N/A NW7 29.69S Moncks Corner FAIR 75 50 41 W5 29.76S Summerville FAIR 73 54 49 W6 29.78R Beaufort MCAS FAIR 78 56 46 W13 29.78F Beaufort Arpt FAIR 77 54 44 W8 29.78S Hilton Head Is PTSUNNY 75 54 46 W6 29.80S Walterboro MOCLDY 77 54 44 W10 29.79R Allendale FAIR 77 54 44 VRB7 29.79R ...Southern Midlands and Pee Dee... CITY SKY/WX TMP DP RH WIND PRES REMARKS Georgetown FAIR 77 52 41 W9 29.75S Kingstree CLOUDY 73 54 49 W5 29.76R Orangeburg PTSUNNY 75 53 46 W9 29.78R Barnwell NOT AVBL Aiken FAIR 72 52 49 W9 29.83R Manning FAIR 72 50 46 NW6 29.77R Columbia PTSUNNY 76 56 49 W9 29.78R Sumter CLOUDY 75 53 46 W8 29.76R Florence PTSUNNY 76 55 48 NW7 29.75R Myrtle Beach FAIR 77 57 50 W9 29.75S N Myrtle Beach FAIR 74 59 59 VRB7 29.73S $$ GAZ063-065-086>088-099>101-113>116-118-119-134>141-150-252300- ...Southeast Georgia... CITY SKY/WX TMP DP RH WIND PRES REMARKS Savannah Arpt FAIR 77 53 43 W10G22 29.80S Hunter AAF FAIR 78 54 43 NW14G21 29.78 Fort Stewart PTSUNNY 75 54 46 NW10 29.80R Statesboro CLOUDY 75 50 41 W10 29.82R Sylvania FAIR 76 58 52 NW10G16 29.81S Claxton CLOUDY 75 56 51 W8 29.83R ...CSRA, Central and far Southeast Georgia... CITY SKY/WX TMP DP RH WIND PRES REMARKS Thomson CLOUDY 72 52 50 N14 29.88R Augusta-Bush PTSUNNY 75 54 47 W9 29.80R Augusta-Daniel PTSUNNY 76 54 46 W9G17 29.82R Swainsboro CLOUDY 72 55 56 W8 29.85R Vidalia CLOUDY 73 50 43 W9 29.84R Eastman MOCLDY 73 45 35 NW10G16 29.89S Hazlehurst MOCLDY 76 51 41 NW6G16 29.84S Alma PTSUNNY 76 54 46 NW13 29.84R Waycross PTSUNNY 77 50 37 NW15 29.83R Jesup NOT AVBL Baxley PTSUNNY 73 52 46 NW13 29.84R Brunswick FAIR 79 52 38 W12 29.82R Saint Simons FAIR 80 54 40 W12G18 29.80R $$ SCZ027-028-034-036>038-045-046-048>050-GAZ119-141-252300- ...Lake and Supplemental Coastal Observations... STATION/POSITION TIME TEMP WIND PRES WAVE SWELL AIR SEA DIR/SP/G HT/PER HT/PER/DIR (UTC) (F) (DEG/KT/KT) (MB) (FT/S) (FT/S/D) Winyah Bay 2045 76 290/ 9 1007.0 Lake Murray 2120 72 280/ 3/ 4 1008.1 ACE Basin NERRS 2045 77 350/ 5 N/A Fort Pulaski 2148 74 67 290/ 14/ 16 1009.2R Sapelo Island 2100 78 290/ 13 1009.0 $$ ANZ835-935-AMZ111-154-330-350-352-354-370-450-454-472-252300- ...C-MAN and Buoy Observations... STATION/POSITION TIME TEMP WIND PRES WAVE SWELL AIR SEA DIR/SP/G HT/PER HT/PER/DIR (UTC) (F) (DEG/KT/KT) (MB) (FT/S) (FT/S/D) Buoy 41004 2150 69 230/ 17/ 21 1008.4S 5/ 8 3/110/ 8 Buoy 41008 2150 69 67 190/ 10/ 12 1008.7R 3/ 9 3/110/ 9 Folly Beach CMAN 2100 68 210/ 15/ 17 1008.8F Capers Nearshore 2108 67 66 230/ 17/ 23 1008.2F Fripp Nearshore 2108 68 66 220/ 8/ 16 1008.1F STATION/POSITION TIME TEMP WIND PRES WAVE SWELL AIR SEA DIR/SP/G HT/PER HT/PER/DIR (UTC) (F) (DEG/KT/KT) (MB) (FT/S) (FT/S/D) 5E St. Marys GA 2200 70 N/A 2/ 9 Frying Pan Buoy 2150 68 71 230/ 19/ 23 1007.5R 6/10 5/120/10 Buoy 41025 2150 70 69 230/ 19/ 23 1006.0R 8/10 7/110/10 Cape Lookout NC 2100 230/ 12/ 16 1006.2R Buoy 41002 2150 73 74 240/ 12/ 16 1009.5R 7/ 9 7/130/ 9 Buoy 41010 2150 74 76 240/ 10/ 14 1011.7R 5/ 8 5/ 80/ 8 St Augustine FL 2200 79 68 270/ 8/ 10 1010.9R $$

USA.gov is the U.S. government's official web portal to all federal, state and local government web resources and services.